Location: Caltech
(34.1382°N, 118.1253°W)
Time: 19:56:28
(UTC-07:00)

Iridium 75 - Visible Passes

Search period start: 27 May 2017 00:00
Search period end: 06 June 2017 00:00
Orbit: 776 x 779 km, 86.4° (Epoch: 27 May)

Date Brightness Start Highest point End Pass type
(mag) Time Alt. Az. Time Alt. Az. Time Alt. Az.
27 May 8.2 01:21:24 17° NW 01:21:24 17° NW 01:23:25 10° NW visible
27 May 8.0 23:07:22 18° ENE 23:07:22 18° ENE 23:09:25 10° NE visible
28 May 7.7 00:47:49 28° NW 00:47:49 28° NW 00:50:50 10° NNW visible
29 May 7.2 00:14:15 41° NNW 00:14:15 41° NNW 00:17:38 10° N visible
29 May 7.1 23:40:40 39° NNE 23:40:40 39° NNE 23:44:04 10° N visible
30 May 8.5 01:21:08 12° WNW 01:21:08 12° WNW 01:22:14 10° NW visible
30 May 7.5 23:07:05 26° NE 23:07:05 26° NE 23:10:04 10° NNE visible
31 May 7.9 00:47:32 22° WNW 00:47:32 22° WNW 00:50:27 10° NNW visible
31 May 8.1 22:33:29 15° ENE 22:33:29 15° ENE 22:35:21 10° NE visible
01 Jun 7.2 00:13:56 38° NW 00:13:56 38° NW 00:17:34 10° N visible
01 Jun 6.7 23:40:20 52° N 23:40:20 52° N 23:44:13 10° N visible
02 Jun 6.9 23:06:43 38° NE 23:06:43 38° NE 23:10:29 10° NNE visible
03 Jun 8.2 00:47:10 16° WNW 00:47:10 16° WNW 00:49:43 10° NW visible
03 Jun 7.5 22:33:05 22° ENE 22:33:05 22° ENE 22:36:16 10° NNE visible
04 Jun 7.5 00:13:32 30° WNW 00:13:32 30° WNW 00:17:19 10° NNW visible
04 Jun 8.1 21:59:27 12° ENE 21:59:27 12° ENE 22:00:52 10° ENE visible
04 Jun 6.6 23:39:54 54° NW 23:39:54 54° NW 23:44:13 10° N visible
05 Jun 6.3 23:06:15 60° NE 23:06:15 60° NE 23:10:44 10° N visible
